SSEC Globe Logo

Space Science and Engineering Center

Wisconsin State Observations

ASUS43 KMKX 172320                                              2017351 2321
RWRWI
WISCONSIN REGIONAL WEATHER ROUNDUP
NATIONAL WEATHER SERVICE MILWAUKEE/SULLIVAN WI
NOTE: "FAIR" INDICATES FEW OR NO CLOUDS BELOW 12,000 FEET WITH NO
SIGNIFICANT WEATHER AND/OR OBSTRUCTIONS TO VISIBILITY.

CITY           SKY/WX    TMP DP  RH WIND       PRES   REMARKS
SUPERIOR ARPT  PTCLDY    25  20  83 W3        29.97F
ASHLAND        CLOUDY    28  23  81 SW7       29.97F WCI  21
HAYWARD        CLOUDY    27  23  85 CALM      29.94F
SIREN          CLOUDY    26  24  93 NW3       29.96F FOG
CUMBERLAND     CLOUDY    27  27 100 CALM      29.94F
RICE LAKE      CLOUDY    28  27  96 CALM      29.96F FOG
CHETEK         CLOUDY    28  26  94 S3        29.95F
LADYSMITH      CLOUDY    28  27  93 SE3       29.96F FOG
EAU CLAIRE     CLOUDY    28  26  92 CALM      29.96F
MENOMONIE      CLOUDY    29  27  91 CALM      29.96F
NEW RICHMOND   CLOUDY    27  24  90 CALM      29.96F FOG
OSCEOLA        CLOUDY    27  27 100 CALM      29.99F


CITY           SKY/WX    TMP DP  RH WIND       PRES   REMARKS
MANITOWISH WTR FLURRIES  24  24 100 S3        29.92F
ARBOR VITAE    LGT SNOW  27  25  95 CALM      29.93F
WOODRUFF       LGT SNOW  27  25  95 CALM      29.93F
RHINELANDER    CLOUDY    26  25  96 S5        29.94F WCI  20
EAGLE RIVER    LGT SNOW  25  25 100 CALM      29.93F
LAND O LAKES   LGT SNOW  26  25  96 CALM      29.94F
PHILLIPS       CLOUDY    26  25  99 S3        29.92F
TOMAHAWK       CLOUDY    26  24  93 CALM      29.95F
MEDFORD        CLOUDY    26  24  96 CALM      29.93F FOG
MERRILL        CLOUDY    27  27  98 CALM      29.95F FOG


CITY           SKY/WX    TMP DP  RH WIND       PRES   REMARKS
WAUSAU         CLOUDY    27  25  92 CALM      29.94F
MOSINEE        CLOUDY    27  27 100 NE5       29.96F FOG     WCI  21
MARSHFIELD     CLOUDY    27  26  96 E3        29.94F FOG
STEVENS POINT  CLOUDY    26  26 100 NE3       29.98R FOG
WAUPACA        CLOUDY    29  26  86 CALM      29.99S
WAUTOMA        CLOUDY    30  27  88 NE6       29.98  WCI  24
WISC RAPIDS    CLOUDY    29  27  92 NE5       29.98S FOG     WCI  24
CAMP DOUGLAS   CLOUDY    31  29  91 CALM      29.97S


CITY           SKY/WX    TMP DP  RH WIND       PRES   REMARKS
ANTIGO         CLOUDY    25  25 100 S6        29.95F FOG     WCI  18
SHAWANO        CLOUDY    29  27  91 CALM      29.99S
OCONTO         CLOUDY    30  28  90 CALM      30.00F
STURGEON BAY   CLOUDY    31  28  89 CALM      30.00F
GREEN BAY      CLOUDY    31  27  85 E3        29.99F
MANITOWOC      CLOUDY    31  29  92 CALM      29.99F
APPLETON       CLOUDY    30  27  86 SE5       29.96F FOG     WCI  25
CLINTONVILLE   CLOUDY    28  27  93 N5        29.99S WCI  23
OSHKOSH        CLOUDY    30  27  88 SE5       29.98F FOG     WCI  25


CITY           SKY/WX    TMP DP  RH WIND       PRES   REMARKS
LA CROSSE      LGT SNOW  32  29  88 CALM      29.99R FOG
SPARTA         CLOUDY    31  28  92 CALM      29.99R FOG
VIROQUA        CLOUDY    30  30 100 CALM      29.96R
BOSCOBEL       CLOUDY    35  29  78 CALM      29.99S
PRAIRIE DU CHI CLOUDY    33  28  82 CALM      29.99R
PLATTEVILLE    CLOUDY    35  32  90 CALM      29.97R

CITY           SKY/WX    TMP DP  RH WIND       PRES   REMARKS
REEDSBURG      CLOUDY    32  30  93 CALM      29.97F
BARABOO/DELLS  CLOUDY    31  29  91 E3        29.96F FOG
LONE ROCK      CLOUDY    34  30  85 E3        29.98F FOG
MINERAL POINT  CLOUDY    36  34  93 CALM      29.97R
MADISON        CLOUDY    33  29  85 NE5       29.99S FOG     WCI  29
MIDDLETON      CLOUDY    34  31  88 CALM      29.98S
WATERTOWN      CLOUDY    32  32 100 NE3       29.98S
MONROE         CLOUDY    34  30  86 NE3       29.95S
JANESVILLE     CLOUDY    36  32  87 NE5       29.96S FOG     WCI  32


CITY           SKY/WX    TMP DP  RH WIND       PRES   REMARKS
MILWAUKEE      CLOUDY    36  33  89 CALM      29.97F FOG
WAUKESHA       CLOUDY    30  28  93 NE5       29.98F FOG     WCI  25
MILWAUKEE/TIMM CLOUDY    34  28  80 CALM      29.99R FOG
RACINE         CLOUDY    35  32  88 CALM      29.99S FOG
BURLINGTON     CLOUDY    46  46 100 CALM      29.97S FOG
KENOSHA        CLOUDY    35  30  82 N3        29.97F HAZE
FOND DU LAC    CLOUDY    31  26  82 SE6       29.99S WCI  25
SHEBOYGAN      CLOUDY    31  30  96 CALM      29.99S FOG
WEST BEND      CLOUDY    32  32 100 CALM      29.98F FOG
JUNEAU         CLOUDY    30  28  93 CALM      29.99F FOG
LSZ147-162-180000-
LAKE SUPERIOR

STATION/POSITION TIME  TEMP    WIND        PRES    WAVE
                       AIR SEA DIR/SP/G            HT/PER
                 (UTC) (F)     (DEG/KT/KT) (MB)    (FT/S)
DEVILS ISLAND    2300   29     230/ 12/ 14 1015.3F
SAXON HARBOR     2240   30                 1014.6F

LMZ867-665-643>646-180000-
LAKE MICHIGAN

STATION/POSITION TIME  TEMP    WIND        PRES    WAVE
                       AIR SEA DIR/SP/G            HT/PER
                 (UTC) (F)     (DEG/KT/KT) (MB)    (FT/S)
NORTHPORT PIER   2240   32      CALM  /  4 1016.3F
KEWAUNEE LAKESHO 2254   31     300/  1/  1 1015.0F
SHEBOYGAN LAKESH 2300   33      CALM  /  1 1016.4R
PORT WASHINGTON  2240   34      80/  2/  3 1016.6R
MILWAUKEE LAKESH 2300   35     330/  2/  2   N/A
KENOSHA   LAKESH 2300   35     350/  1/  3 1015.2
TC  - TEMPERATURE IN CELSIUS
VSB - VISIBILITY IN STATUTE MILES
WCI - WIND CHILL INDEX
HX  - HEAT INDEX